Lid_Strength_Index
-0 0 5 6 11 13 15 13 11 10 10 10 10 10 10 10 9 11 5 2 1 1 -0 -0 -1 -1 -1 -1 -1 -1 -1 -1 -1 -1 -1 -1 -1 -1 -1 -1 -1 -1 -1 -1 -1 -1 -1 -1 -1
0 1 5 9 13 15 14 13 11 10 9 9 10 10 10 9 6 5 4 1 0 0 -0 0 -1 -1 -1 -1 -1 -1 -1 -1 -1 -1 -2 -2 -2 -1 -1 -1 -1 -1 -1 -1 -1 -1 -1 -1 -1
1 4 7 10 13 15 14 12 11 9 9 9 10 9 9 8 5 4 3 1 0 0 0 -0 -1 -1 -1 -1 -1 -1 -1 -1 -1 -2 -2 -2 -2 -1 -1 -1 -1 -1 -1 -1 -1 -1 -1 -1 -1
4 6 8 11 13 11 12 11 10 9 8 8 8 9 7 6 5 4 1 0 1 1 1 -0 -1 -1 -1 -1 -1 -1 -1 -1 -1 -2 -2 -1 -1 -1 -1 -1 -1 -1 -1 -1 -1 -1 -1 -1 -1
6 8 12 14 12 11 11 9 9 10 10 10 10 9 8 5 3 2 1 1 1 1 1 0 -1 -1 -1 -1 -1 -1 -1 -1 -1 -1 -1 -1 -1 -1 -2 -1 -1 -1 -1 -1 -1 -1 -1 -1 -1
8 9 14 15 13 10 10 9 9 11 10 9 9 8 7 5 4 3 1 1 1 1 0 0 -0 -1 -1 -1 -1 -1 -1 -1 -1 -1 -1 -1 -1 -1 -1 -1 -1 -1 -1 -1 -1 -1 -1 -1 -1
9 11 14 14 13 11 9 8 10 9 10 9 8 9 7 6 4 3 1 2 1 0 0 0 0 -0 -0 -1 -1 -1 -1 -1 -2 -2 -2 -1 -1 -1 -1 -1 -1 -1 -1 -1 -1 -1 -1 -1 -1
8 10 14 12 13 12 8 8 8 10 10 7 7 9 8 6 4 3 4 2 2 1 0 1 0 0 0 -0 -1 -1 -1 -1 -2 -2 -1 -1 -1 -1 -1 -1 -1 -1 -1 -1 -1 -1 -1 -1 -1
7 12 14 13 12 11 8 9 7 7 9 8 8 7 7 4 3 3 3 3 2 1 1 1 0 0 0 0 0 -0 -1 -1 -1 -1 -0 -0 1 1 1 -1 -1 -1 -1 -1 -1 -1 -1 -1 -1
9 13 13 9 9 10 8 8 7 8 8 8 8 7 4 4 4 5 4 4 3 3 2 0 0 1 1 0 1 1 0 0 0 0 1 1 1 1 -0 0 -1 -1 -1 -1 -1 -1 -1 -0 1
10 12 9 9 8 7 8 8 7 9 9 8 8 7 6 5 5 5 5 4 3 4 2 1 1 1 1 0 1 1 1 1 1 1 1 1 1 1 2 2 2 2 1 2 2 2 2 2 2
12 9 9 8 7 8 9 7 8 8 7 7 7 6 7 7 5 5 5 4 4 4 2 2 1 1 1 1 1 1 1 2 2 1 1 2 2 2 3 3 3 3 2 3 3 2 2 4 5
11 9 8 7 7 7 7 8 9 8 6 5 5 6 6 7 7 6 5 5 4 4 3 2 1 1 1 1 1 1 1 1 2 1 1 1 2 3 4 3 3 3 3 2 5 6 6 7 7
9 9 9 8 8 8 8 8 8 7 6 7 7 6 6 7 6 7 6 6 6 6 5 1 1 1 1 1 1 1 1 1 1 1 1 1 2 2 2 4 6 6 6 6 6 7 8 10 11
9 11 10 9 9 9 8 10 10 6 6 6 6 6 6 6 6 6 6 6 6 5 6 3 1 1 2 1 1 1 2 1 1 1 2 2 1 4 6 6 7 7 7 7 9 11 11 13 12
11 11 16 11 9 9 8 13 8 7 6 7 6 7 7 6 6 7 6 6 6 6 4 3 1 1 2 1 2 2 2 3 4 4 4 4 6 6 6 7 9 10 11 11 12 13 13 14 14
12 17 15 13 10 10 10 13 9 7 7 8 8 8 7 7 7 7 6 6 6 5 5 3 2 2 2 3 3 5 6 7 7 7 7 8 8 8 8 10 11 12 13 14 13 14 13 14 14
17 17 16 15 12 12 12 12 10 8 8 8 8 8 8 8 7 6 7 6 6 5 4 5 3 3 3 6 8 9 9 8 9 9 10 10 11 11 11 12 12 12 13 14 14 14 14 14 14
14 16 16 14 11 13 13 13 11 10 9 9 8 8 8 8 7 8 7 7 6 5 4 4 5 5 6 7 9 9 11 12 11 11 12 12 12 12 13 13 13 14 14 15 14 14 15 14 13
13 14 15 13 12 12 13 13 12 11 10 9 9 8 7 7 8 8 7 6 5 5 4 4 5 6 6 7 10 11 10 12 13 13 13 12 12 13 13 14 14 14 15 15 15 16 15 15 14
14 15 15 15 14 13 14 15 14 12 11 10 9 8 7 7 6 8 8 6 5 5 4 4 5 7 8 10 11 13 13 13 14 13 14 13 14 14 14 15 15 15 15 15 16 16 16 16 15
16 13 13 14 16 19 15 20 16 14 13 12 11 9 8 7 7 7 7 6 5 5 4 5 5 7 9 9 10 11 12 13 13 13 14 14 15 14 14 15 15 16 15 16 15 15 16 15 16
15 12 13 13 15 17 16 19 18 15 14 13 11 10 8 7 7 7 7 5 5 5 6 7 7 7 8 9 10 12 14 14 14 15 16 17 16 15 15 15 16 16 15 16 16 16 16 16 16
10 11 12 12 14 19 17 17 18 16 15 13 11 10 8 7 8 7 6 5 6 7 8 8 7 8 8 9 11 11 14 15 16 17 17 16 16 16 16 16 16 16 16 16 16 16 17 17 17
11 14 19 20 20 20 14 16 16 15 14 13 12 10 9 8 9 8 6 6 7 7 8 8 9 10 10 10 11 12 14 16 16 16 15 16 16 17 17 16 16 16 16 16 16 16 17 17 18
13 13 19 23 22 20 14 18 16 12 10 10 10 10 9 9 9 7 6 6 7 7 8 8 10 12 11 13 14 15 14 14 14 15 16 16 16 16 16 16 16 16 16 16 17 17 17 17 18
13 16 12 17 16 19 16 15 11 10 11 11 11 11 11 9 9 7 6 6 7 8 9 10 12 13 14 14 14 14 14 14 15 16 16 16 16 15 16 16 16 16 16 17 17 17 18 18 18
11 11 17 16 22 22 19 17 16 12 11 11 11 11 9 9 9 7 7 8 9 10 11 12 13 14 15 15 14 15 16 15 16 16 17 17 16 16 16 17 16 17 17 17 17 18 18 18 18
13 15 14 14 16 21 22 17 12 11 11 10 11 11 10 8 8 8 9 10 11 12 13 14 15 15 16 15 16 16 16 16 16 17 17 17 16 17 17 16 17 17 17 18 18 18 18 18 17
12 14 13 18 19 16 18 16 10 10 10 9 10 9 9 9 9 10 11 12 12 13 13 15 15 16 16 16 16 17 16 17 17 17 17 17 17 17 17 17 17 17 17 18 18 18 17 18 18